Simultaneous Nadir Overpasses (SNOs) Predictions

Prediction of SNOs near US between AQUA and NPP Satellite Orbit:

Table of predicted SNOs near US for the next 10.0 days since TLE Epoch: 10/24/2014
Index Date (AQUA) Time (AQUA) AQUA Lat,Lon Date (NPP) Time (NPP) NPP Lat,Lon Distance(km) Time Diff (sec)
1 10/25/2014 19:25:16 49.98, -97.26 10/25/2014 19:16:56 51.99, -97.08 223.41 500
2 10/25/2014 21:04:09 49.97,-121.98 10/25/2014 20:57:52 50.05,-121.55 31.78 377
3 10/28/2014 18:09:00 20.09, -71.36 10/28/2014 18:10:31 19.86, -72.40 111.29 91
4 10/28/2014 19:52:00 34.94, -99.86 10/28/2014 19:56:12 34.56,-101.69 172.47 252
5 10/31/2014 07:46:02 20.02, -89.61 10/31/2014 07:43:43 19.97, -89.37 25.17 139
6 10/31/2014 09:17:24 47.06,-106.57 10/31/2014 09:17:28 47.06,-106.56 0.99 4
7 11/02/2014 20:14:46 49.99,-109.64 11/02/2014 20:06:50 50.15,-108.85 59.01 476




NCC Satellite Simultaneous Nadir Overpasses (SNOs) Prediction Service
